EW8080 Weather Reports


time (UTC)temp
C
wind
direction
speed
KPH
gust
KPH
rain 1hr
cm
rain 24hr
cm
rain mn
cm
humidity
%
barometer
mb
20191205204301 3 274 12.9 22.5 0.00 0.99 0.89 70 1005.1
20191205203600 3 275 12.9 25.7 0.00 0.99 0.89 70 1005.1
20191205202900 3 280 14.5 33.8 0.00 0.99 0.89 69 1005.1
20191205202200 4 280 12.9 33.8 0.10 0.99 0.89 69 1004.1
20191205201501 4 277 11.3 25.7 0.10 0.99 0.89 67 1004.1
20191205200800 4 300 12.9 25.7 0.10 0.99 0.89 66 1004.1
20191205200101 4 286 11.3 25.7 0.10 0.99 0.89 67 1004.1
20191205195400 4 265 11.3 27.4 0.10 1.09 0.89 68 1003.1
20191205194701 4 282 16.1 27.4 0.10 1.09 0.89 66 1003.1
20191205194000 5 293 17.7 27.4 0.10 1.09 0.89 65 1003.1
20191205193301 5 277 17.7 43.5 0.10 1.09 0.89 66 1003.1
20191205192601 5 276 16.1 43.5 0.00 0.99 0.79 66 1003.1
20191205191900 5 276 16.1 38.6 0.00 0.99 0.79 66 1003.1
20191205191201 5 280 20.9 38.6 0.10 0.99 0.79 66 1003.1
20191205190500 5 285 17.7 37.0 0.10 0.99 0.79 67 1003.1
20191205185800 5 271 16.1 30.6 0.10 0.99 0.79 69 1003.1
20191205185101 5 294 14.5 37.0 0.10 0.99 0.79 69 1003.1
20191205184401 5 288 17.7 37.0 0.10 0.99 0.79 67 1003.1
20191205183701 5 271 19.3 33.8 0.10 0.99 0.79 69 1003.1
20191205183001 5 270 16.1 32.2 0.10 0.99 0.79 69 1003.1
20191205182301 5 271 12.9 33.8 0.10 0.99 0.79 69 1002.1
20191205181601 5 298 16.1 33.8 0.20 0.99 0.79 69 1002.1
20191205180901 5 285 16.1 33.8 0.10 0.89 0.71 69 1002.1
20191205180201 5 284 11.3 30.6 0.10 0.89 0.71 70 1002.1
20191205175501 5 278 11.3 22.5 0.10 0.89 0.71 71 1002.1
20191205174801 5 278 14.5 25.7 0.10 0.89 0.71 71 1002.1
20191205174101 5 293 17.7 30.6 0.20 0.89 0.71 70 1002.1
20191205173401 5 293 17.7 33.8 0.20 0.89 0.71 71 1002.1
20191205172701 5 275 17.7 33.8 0.20 0.89 0.71 71 1002.1
20191205172001 4 275 19.3 32.2 0.20 0.89 0.71 72 1002.1
20191205171301 4 286 19.3 30.6 0.30 0.79 0.61 72 1002.1
20191205170601 4 291 17.7 35.4 0.30 0.79 0.61 72 1002.1
20191205165901 4 291 16.1 35.4 0.30 0.79 0.61 72 1002.1
20191205165201 4 281 16.1 30.6 0.30 0.79 0.61 72 1002.1
20191205164501 4 288 16.1 38.6 0.41 0.79 0.61 72 1002.1
20191205163801 4 287 17.7 38.6 0.30 0.69 0.51 72 1002.1
20191205163101 4 285 12.9 30.6 0.30 0.69 0.51 74 1002.1
20191205162401 3 278 12.9 32.2 0.30 0.69 0.51 74 1002.1
20191205161701 3 276 14.5 32.2 0.28 0.69 0.51 74 1002.1
20191205161001 3 290 17.7 25.7 0.10 0.51 0.30 75 1002.1
20191205160301 3 278 16.1 30.6 0.20 0.51 0.30 77 1002.1
20191205155601 3 278 17.7 32.2 0.20 0.51 0.30 78 1002.1
20191205154901 3 283 17.7 32.2 0.20 0.51 0.30 77 1002.1
20191205154201 3 284 16.1 33.8 0.10 0.41 0.20 78 1002.1
20191205153501 3 281 16.1 25.7 0.10 0.41 0.20 80 1002.1
20191205152141 3 279 11.3 25.7 0.10 0.41 0.20 82 1002.1
20191205151441 2 297 9.7 24.1 0.00 0.30 0.10 83 1002.1
20191205150741 2 295 12.9 25.7 0.00 0.30 0.10 84 1002.1
20191205150041 2 279 14.5 25.7 0.00 0.30 0.10 86 1002.1
20191205145341 2 280 12.9 25.7 0.00 0.30 0.10 89 1002.1
20191205144641 2 277 9.7 25.7 0.00 0.30 0.10 94 1002.1
20191205143941 2 271 9.7 17.7 0.00 0.30 0.10 99 1002.1
20191205143241 2 269 8.0 16.1 0.00 0.30 0.10 100 1002.1
20191205142541 1 267 6.4 22.5 0.00 0.30 0.10 100 1002.1
20191205141841 1 267 6.4 14.5 0.00 0.30 0.10 100 1002.1
20191205141141 1 279 1.6 12.9 0.00 0.30 0.10 100 1001.1
20191205140441 1 0 0.0 12.9 0.00 0.30 0.10 100 1001.1
20191205135741 0 0 0.0 8.0 0.00 0.30 0.10 100 1001.1
20191205135041 0 0 0.0 9.7 0.00 0.30 0.10 100 1001.1
20191205134341 0 0 0.0 9.7 0.00 0.30 0.10 100 1001.1
20191205133641 0 0 0.0 9.7 0.00 0.30 0.10 100 1001.1
20191205132941 0 0 0.0 0.0 0.00 0.30 0.10 100 1001.1
20191205132241 0 0 0.0 0.0 0.00 0.30 0.10 100 1001.1
20191205131541 0 0 0.0 0.0 0.00 0.30 0.10 100 1001.1
20191205130841 0 0 0.0 0.0 0.00 0.30 0.10 100 1001.1
20191205130141 -1 0 0.0 0.0 0.00 0.30 0.10 100 1001.1
20191205125441 -1 0 0.0 0.0 0.00 0.30 0.10 100 1001.1
20191205124741 -1 0 0.0 0.0 0.00 0.30 0.10 100 1001.1
20191205124041 -1 0 0.0 0.0 0.00 0.30 0.10 100 1001.1
20191205123341 -1 0 0.0 0.0 0.00 0.30 0.10 100 1001.1
20191205122641 -1 0 0.0 0.0 0.00 0.30 0.10 100 1000.1
20191205121941 -1 0 0.0 4.8 0.00 0.30 0.10 100 1000.1
20191205121241 -1 0 0.0 0.0 0.00 0.30 0.10 100 1000.1
20191205120541 -1 0 0.0 0.0 0.00 0.30 0.10 100 1000.1
20191205115841 -1 0 0.0 0.0 0.00 0.30 0.10 100 1000.1
20191205115141 -1 0 0.0 0.0 0.00 0.30 0.10 100 1000.1
20191205114441 -1 0 0.0 8.0 0.00 0.30 0.10 100 1000.1
20191205113741 -1 0 0.0 8.0 0.00 0.30 0.10 100 1000.1
20191205113041 -1 0 0.0 8.0 0.00 0.30 0.10 100 1000.1
20191205112341 -1 0 0.0 8.0 0.00 0.30 0.10 100 1000.1
20191205111641 -1 0 0.0 9.7 0.00 0.30 0.10 100 1000.1
20191205110941 -1 0 0.0 9.7 0.00 0.30 0.10 100 999.1
20191205110241 -1 0 0.0 8.0 0.00 0.30 0.10 100 999.1
20191205105541 -1 0 0.0 8.0 0.00 0.30 0.10 100 999.1
20191205104841 -1 0 0.0 8.0 0.00 0.30 0.10 100 999.1
20191205104141 -1 0 0.0 0.0 0.00 0.30 0.10 100 999.1
20191205103441 -1 0 0.0 0.0 0.00 0.30 0.10 100 999.1
20191205102741 0 0 0.0 0.0 0.00 0.30 0.10 100 999.1
20191205102041 -1 0 0.0 0.0 0.00 0.30 0.10 100 999.1
20191205101341 -1 0 0.0 0.0 0.00 0.30 0.10 100 999.1
20191205100641 0 0 0.0 0.0 0.00 0.30 0.10 100 998.1
20191205095941 0 0 0.0 0.0 0.00 0.30 0.10 100 998.1
20191205095241 0 0 0.0 0.0 0.00 0.30 0.10 100 998.1
20191205094541 0 0 0.0 0.0 0.00 0.30 0.10 100 998.1
20191205093841 0 0 0.0 0.0 0.00 0.30 0.10 100 998.1
20191205093141 0 0 0.0 0.0 0.00 0.30 0.10 100 998.1
20191205092441 0 0 0.0 0.0 0.00 0.30 0.10 100 998.1
20191205091741 0 0 0.0 0.0 0.00 0.30 0.10 100 998.1
20191205091041 0 0 0.0 0.0 0.00 0.30 0.10 100 998.1
20191205090341 0 0 0.0 0.0 0.00 0.30 0.10 100 998.1
20191205085641 0 0 0.0 0.0 0.00 0.30 0.10 100 998.1
20191205084941 0 0 0.0 0.0 0.00 0.30 0.10 100 998.1
20191205084241 0 0 0.0 0.0 0.00 0.30 0.10 100 998.1
20191205083542 0 0 0.0 0.0 0.00 0.30 0.10 100 998.1
20191205082841 0 0 0.0 0.0 0.00 0.30 0.10 100 998.1
20191205082141 0 0 0.0 0.0 0.00 0.30 0.10 100 998.1
20191205081441 0 0 0.0 0.0 0.00 0.30 0.10 100 998.1
20191205080741 0 0 0.0 0.0 0.00 0.30 0.10 100 998.1
20191205080041 0 0 0.0 0.0 0.00 0.30 0.10 100 998.1
20191205075353 0 0 0.0 0.0 0.00 0.30 0.10 100 998.1
20191205074641 0 0 0.0 0.0 0.00 0.30 0.10 100 998.1
20191205073941 0 0 0.0 0.0 0.00 0.30 0.10 100 998.1
20191205073241 0 0 0.0 0.0 0.00 0.30 0.10 100 998.1
20191205072541 0 0 0.0 0.0 0.00 0.30 0.10 100 998.1
20191205071841 0 0 0.0 0.0 0.00 0.30 0.10 100 998.1
20191205071141 0 0 0.0 0.0 0.00 0.30 0.10 100 998.1
20191205070441 0 0 0.0 0.0 0.00 0.30 0.10 100 998.1
20191205065741 0 0 0.0 0.0 0.00 0.30 0.10 100 998.1
20191205065041 0 0 0.0 0.0 0.00 0.30 0.10 100 998.1
20191205064341 0 0 0.0 0.0 0.00 0.30 0.10 100 998.1
20191205063641 0 0 0.0 0.0 0.00 0.30 0.10 100 997.1
20191205062941 0 0 0.0 0.0 0.00 0.30 0.10 100 997.1
20191205062241 0 0 0.0 8.0 0.00 0.30 0.10 100 997.1
20191205061541 0 0 0.0 8.0 0.00 0.30 0.10 100 997.1
20191205060841 0 0 0.0 8.0 0.00 0.30 0.10 100 997.1
20191205060141 0 0 0.0 6.4 0.00 0.30 0.10 100 997.1
20191205055441 0 0 0.0 9.7 0.10 0.30 0.10 100 997.1
20191205054741 0 289 1.6 9.7 0.10 0.30 0.10 100 997.1
20191205054041 0 277 3.2 12.9 0.10 0.30 0.10 100 997.1
20191205053341 0 277 6.4 14.5 0.10 0.30 0.10 100 997.1
20191205052641 0 274 6.4 12.9 0.10 0.30 0.10 100 997.1
20191205051941 0 273 3.2 12.9 0.10 0.30 0.10 100 997.1
20191205051241 0 280 0.0 9.7 0.10 0.30 0.10 100 997.1
20191205050541 0 278 0.0 8.0 0.10 0.30 0.10 100 997.1
20191205045841 0 0 0.0 0.0 0.00 0.20 0.20 100 997.1
20191205045141 0 0 0.0 0.0 0.00 0.20 0.20 100 997.1
20191205044441 0 0 0.0 8.0 0.00 0.20 0.20 100 997.1
20191205043741 0 0 0.0 8.0 0.00 0.20 0.20 100 998.1
20191205043041 0 0 0.0 8.0 0.00 0.20 0.20 100 998.1
20191205042341 0 270 3.2 12.9 0.00 0.20 0.20 100 998.1
20191205041641 0 263 3.2 9.7 0.00 0.20 0.20 100 998.1
20191205040941 0 0 0.0 9.7 0.00 0.20 0.20 100 998.1
20191205040241 0 276 1.6 12.9 0.00 0.20 0.20 100 998.1
20191205035541 0 270 4.8 14.5 0.00 0.20 0.20 100 998.1
20191205034841 0 267 8.0 14.5 0.00 0.20 0.20 100 998.1
20191205034141 0 269 8.0 12.9 0.00 0.20 0.20 100 998.1
20191205033441 0 271 4.8 16.1 0.00 0.20 0.20 100 998.1
20191205032741 0 271 4.8 12.9 0.00 0.20 0.20 100 998.1
20191205032041 0 276 4.8 12.9 0.00 0.20 0.20 100 998.1
20191205031341 0 271 4.8 12.9 0.00 0.20 0.20 100 998.1
20191205030641 0 270 4.8 12.9 0.00 0.20 0.20 100 998.1
20191205025941 0 270 6.4 14.5 0.00 0.20 0.20 100 998.1
20191205025241 0 267 6.4 19.3 0.00 0.20 0.20 100 998.1
20191205024541 0 270 6.4 14.5 0.00 0.20 0.20 100 998.1
20191205023841 0 279 1.6 9.7 0.00 0.20 0.20 100 997.1
20191205023141 1 0 0.0 0.0 0.00 0.20 0.20 100 997.1
20191205022441 1 318 0.0 8.0 0.00 0.20 0.20 100 997.1
20191205021741 1 301 3.2 9.7 0.00 0.20 0.20 100 997.1
20191205021041 1 302 1.6 9.7 0.00 0.20 0.20 100 998.1
20191205020341 1 298 1.6 9.7 0.00 0.20 0.20 100 998.1
20191205015641 0 290 3.2 9.7 0.00 0.20 0.20 100 998.1
20191205014941 0 280 4.8 11.3 0.00 0.20 0.20 100 998.1
20191205014241 1 272 4.8 12.9 0.00 0.20 0.20 100 998.1
20191205013541 1 273 6.4 12.9 0.00 0.20 0.20 100 997.1
20191205012841 1 272 6.4 12.9 0.00 0.20 0.20 100 997.1
20191205012141 1 269 8.0 16.1 0.00 0.20 0.20 100 998.1
20191205011441 1 259 9.7 16.1 0.00 0.20 0.20 100 998.1
20191205010741 1 260 4.8 12.9 0.00 0.20 0.20 100 998.1
20191205010041 1 254 3.2 9.7 0.00 0.20 0.20 100 998.1
20191205005341 1 253 0.0 9.7 0.00 0.20 0.20 100 998.1
20191205004641 0 0 0.0 9.7 0.00 0.20 0.20 100 998.1
20191205003941 1 0 0.0 9.7 0.00 0.20 0.20 100 998.1
20191205003241 1 0 0.0 0.0 0.00 0.20 0.20 100 998.1
20191205002541 1 0 0.0 0.0 0.00 0.20 0.20 100 998.1
20191205001841 1 0 0.0 0.0 0.00 0.20 0.20 100 998.1
20191205001141 1 0 0.0 0.0 0.00 0.20 0.20 100 998.1
20191205000441 1 0 0.0 0.0 0.00 0.20 0.20 100 998.1
20191204235741 1 0 0.0 0.0 0.00 0.20 0.20 100 998.1
20191204235041 1 0 0.0 0.0 0.00 0.20 0.20 100 998.1
20191204234341 1 0 0.0 0.0 0.00 0.20 0.20 100 998.1
20191204233641 1 0 0.0 0.0 0.00 0.20 0.20 100 998.1
20191204232941 1 0 0.0 0.0 0.10 0.20 0.20 100 998.1
20191204232241 1 0 0.0 0.0 0.10 0.20 0.20 99 998.1
20191204231541 1 0 0.0 0.0 0.10 0.20 0.20 99 998.1
20191204230841 1 0 0.0 0.0 0.10 0.20 0.20 98 998.1
20191204230141 1 0 0.0 0.0 0.10 0.20 0.20 98 998.1
20191204225441 1 0 0.0 0.0 0.10 0.20 0.20 97 998.1
20191204224741 1 0 0.0 0.0 0.10 0.20 0.20 96 998.1
20191204224041 1 0 0.0 0.0 0.10 0.20 0.20 96 998.1
20191204223341 1 0 0.0 0.0 0.10 0.20 0.20 96 998.1
20191204222641 1 0 0.0 0.0 0.00 0.10 0.10 96 998.1
20191204221941 1 0 0.0 0.0 0.00 0.10 0.10 95 998.1
20191204221241 1 0 0.0 0.0 0.00 0.10 0.10 95 998.1
20191204220541 1 0 0.0 0.0 0.00 0.10 0.10 94 998.1
20191204215841 1 0 0.0 0.0 0.00 0.10 0.10 94 998.1
20191204215141 1 0 0.0 0.0 0.00 0.10 0.10 94 998.1
20191204214441 1 0 0.0 0.0 0.00 0.10 0.10 93 998.1
20191204213741 1 0 0.0 0.0 0.00 0.10 0.10 92 998.1
20191204213041 1 0 0.0 0.0 0.00 0.10 0.10 91 998.1
20191204212341 1 0 0.0 0.0 0.00 0.10 0.10 90 998.1
20191204211641 1 0 0.0 0.0 0.00 0.10 0.10 90 998.1
20191204210941 2 0 0.0 0.0 0.00 0.10 0.10 90 998.1
20191204210241 2 0 0.0 0.0 0.10 0.10 0.10 89 998.1
20191204205541 2 0 0.0 0.0 0.10 0.10 0.10 89 998.1
20191204204841 2 0 0.0 0.0 0.10 0.10 0.10 89 998.1